Tracking 34305 objects as of 6-Jun-2026
HD Live streaming from Space Station
objects crossing your sky now

STARLINK-37666

Track STARLINK-37666 now!
10-day predictions
STARLINK-37666 is classified as:


NORAD ID: 69046
Int'l Code: 2026-101X
Perigee: 458.7 km
Apogee: 461.9 km
Inclination: 97.3 °
Period: 93.7 minutes
Semi major axis: 6831 km
RCS: Unknown
Launch date: May 6, 2026
Source: United States (US)
Launch site: AIR FORCE WESTERN TEST RANGE (AFWTR)
Your satellite tracking list
Your tracking list is empty




NASA's NSSDC Master Catalog

Two Line Element Set (TLE):
1 69046U 26101X   26157.25002315 -.02374852  00000-0 -72393-1 0  9992
2 69046  97.2864  12.3323 0002339  89.9792 175.7077 15.37610875  6023
Source of the keplerian elements: AFSPC